Flag for Spain Weather past 2 weeks in Santa Cruz de Tenerife, Canary Islands, Spain

Now
64 °F

Passing clouds.


Feels Like: 64 °F
Forecast: 74 / 82 °F
Wind: 18 mph from Northwest

Location: Tenerife / Los Rodeos

Current Time: Aug 28, 2015 at 9:27:26 AM

Latest Report: Aug 28, 2015 at 8:30 AM


Visibility: N/A

Pressure: 30.09 "Hg

Humidity: 94%

Dew point: 63 °F

Location of Santa Cruz de TenerifeLocation

Historic Weather in Santa Cruz de Tenerife — Graph

°F

Santa Cruz de Tenerife temperature yesterday

Maximum temperature yesterday: 72 °F (at 12:30 PM)
Minimum temperature yesterday: 64 °F (at 6:00 AM)
Average temperature yesterday: 67 °F

Past Weeks' High & Low Weather Summary

 TemperatureHumidityPressure
High82 °F (Aug 13, 4:00 PM)100% (Aug 14, 6:00 AM)30.27 "Hg (Aug 14, 6:00 AM)
Low61 °F (Aug 15, 7:30 AM)53% (Aug 19, 6:30 PM)30.07 "Hg (Aug 19, 6:00 AM)
Average68 °F83%30.16 "Hg
* Reported Aug 13 8:00 AM — Aug 28 8:00 AM, Santa Cruz de Tenerife, Weather by CustomWeather, © 2015

Note: Actual official high and low records may vary slightly from our data, if they occured in-between our weather recording intervals... More about our weather records

Advertising

Santa Cruz de Tenerife weather history for previous 24 hours

 ConditionsComfort  
Time TempWeatherWind HumidityBarometerVisibility
8:00 AM
Fri, Aug 28
64 °FPassing clouds.18 mph94%30.09 "HgN/A
7:30 AM64 °FPassing clouds.18 mph94%30.09 "HgN/A
7:00 AM64 °FPassing clouds.17 mph94%30.07 "HgN/A
6:30 AM64 °FLight rain. Fog.16 mph100%30.07 "HgN/A
6:00 AM64 °FPartly cloudy.15 mph94%30.07 "HgN/A
11:00 PM
Thu, Aug 27
64 °FPassing clouds.17 mph94%30.15 "HgN/A
10:30 PM64 °FPassing clouds.16 mph94%30.15 "HgN/A
10:00 PM64 °FPassing clouds.17 mph94%30.12 "HgN/A
9:30 PM64 °FPartly sunny.16 mph94%30.12 "HgN/A
9:00 PM64 °FPartly sunny.20 mph94%30.12 "HgN/A
8:30 PM66 °FPartly sunny.20 mph88%30.12 "HgN/A
8:00 PM66 °FPartly sunny.20 mph88%30.12 "HgN/A
7:30 PM66 °FPartly sunny.21 mph88%30.09 "HgN/A
7:00 PM68 °FPartly sunny.20 mph83%30.09 "HgN/A
6:30 PM68 °FScattered clouds.18 mph83%30.09 "HgN/A
6:00 PM68 °FScattered clouds.20 mph83%30.09 "HgN/A
5:30 PM68 °FPartly sunny.21 mph83%30.09 "HgN/A
5:00 PM68 °FPartly sunny.18 mph83%30.12 "HgN/A
4:30 PM70 °FScattered clouds.18 mph73%30.12 "HgN/A
4:00 PM70 °FScattered clouds.17 mph78%30.12 "HgN/A
3:30 PM70 °FScattered clouds.17 mph78%30.12 "HgN/A
3:00 PM72 °FScattered clouds.17 mph73%30.15 "HgN/A
2:30 PM72 °FScattered clouds.15 mph73%30.15 "HgN/A
2:00 PM72 °FScattered clouds.16 mph73%30.15 "HgN/A
1:30 PM72 °FScattered clouds.14 mph69%30.15 "HgN/A
1:00 PM72 °FScattered clouds.14 mph69%30.15 "HgN/A
12:30 PM72 °FScattered clouds.16 mph69%30.15 "HgN/A
12:00 PM70 °FScattered clouds.16 mph73%30.18 "HgN/A
11:30 AM70 °FScattered clouds.13 mph73%30.18 "HgN/A
10:30 AM66 °FScattered clouds.14 mph88%30.15 "HgN/A
10:00 AM66 °FScattered clouds.14 mph88%30.15 "HgN/A
9:30 AM66 °FScattered clouds.13 mph88%30.15 "HgN/A
9:00 AM66 °FBroken clouds.15 mph88%30.15 "HgN/A
Weather by CustomWeather, © 2015

See weather overviewHow to use our weather pages